{"data":{"norad_id":42961,"intl_designator":"2017-061G","name":"IRIDIUM 132","alt_names":[],"object_type":"PAYLOAD","status":"ACTIVE","operator":null,"country":"US","launch_date":"2017-10-09","launch_site_code":"AFWTR","launch_vehicle":null,"mission":null,"orbit_class":"UNKNOWN","rcs_meters":null,"size_class":null,"mass_kg":null,"dimensions":null,"purposes":["comms"],"wikipedia_slug":null,"has_3d_model":false,"image_url":null,"decayed_at":null,"tle_current":{"epoch":"2026-05-25T03:04:58.312416Z","epoch_age_seconds":61059,"freshness":"FRESH","line1":"1 42961U 17061G   26145.12845269  .00000146  00000+0  45084-4 0  9997","line2":"2 42961  86.3990  34.8888 0002267  84.8400 275.3054 14.34217353451514","mean_motion":14.34217353,"eccentricity":0.0002267,"inclination_deg":86.399,"raan_deg":34.8888,"arg_perigee_deg":84.84,"mean_anomaly_deg":275.3054,"bstar":4.5084e-5,"rev_number":45151,"period_min":100.40319181663,"perigee_km":776.04625376539,"apogee_km":779.2906959677,"semimajor_km":7155.8054748665,"source":"CELESTRAK","updated_at":"2026-05-25T13:38:14.803544Z"}}}